Погода в Мокеихе

Россия / Ярославская область     57°56′37″N   37°23′40″E
темп.,
°C
ветер,
м/с
пор.,
м/с
влажн.,
%
обл.,
%
осадки,
мм/ч
давл.,
гПа
погр.,
м
18 апреля, вс
вс1800:00+6св311720 0.0 1026273
03:00+4св310823 0.0 1026221
06:00+3св311823 0.0 1026262
09:00+8всв4106237 0.0 1026571
12:00+10всв6105085 0.0 10261254
15:00+11всв695096 0.0 10261534
18:00+9всв4959100 0.0 10261308
21:00+6всв51074100 0.0 1028602
19 апреля, пн
пн1900:00+4всв4981100 0.0 1028570
03:00+3всв4982100 0.0 1029528
06:00+1всв497977 0.0 1029453
09:00+4всв575925 0.0 1030777
12:00+7в57455 0.0 10291411
15:00+9в573614 0.0 10291746
18:00+8в474579 0.0 10281882
21:00+5в4105735 0.0 1029415
20 апреля, вт
вт2000:00+2в4116522 0.0 1029469
03:00+1всв4116794 0.0 1028472
06:00+1всв41170100 0.0 1027536
09:00+3в51164100 0.0 1026724
12:00+7в6952100 0.0 10251188
15:00+8вюв6962100 0.0 10231270
18:00+6вюв41181100 0.8 10221169
21:00+6вюв31074100 1.8 1020916
21 апреля, ср
ср2100:00+6в51260100 0.0 1017856
03:00+4в61463100 0.1 1013902
06:00+1в71796100 2.8 1009839
09:00+2вюв61593100 5.9 1007861
12:00+3вюв61591100 0.0 1004706
15:00+3вюв61494100 1.2 1003977
18:00+5юв51195100 1.8 10011183
21:00+3ююв4897100 3.2 1002907
22 апреля, чт
чт2200:00+3ююз4997100 1.6 1003867
03:00+2юз61196100 2.6 1008898
06:00+3ююз51194100 0.2 10101055
09:00+4ююз51090100 0.2 10121025
12:00+6зюз51183100 0.4 10151189
15:00+7з4878100 0.8 1017933
18:00+8з247897 0.0 1018276
21:00+4в11905 0.0 102010